sat.trackr.live / text

‹ back to catalog

2024-085C

NORAD 59679 · 2024-085C

PAYLOAD ACTIVE UNKNOWN

§ Identity

Operator
Country
PRC
Launch date
2024-05-07
Launch site
TAISC
Launch vehicle
Mass (kg)
RCS (m²)

External: N2YO · Heavens-Above · Gunter

§ Orbital elements

Epoch: 2026-05-25T04:59:00.310272Z

Period
93.91 min
Inclination
97.3292°
Eccentricity
0.0028665
Mean motion
15.33336630 rev/d
Perigee alt
446.2 km
Apogee alt
485.5 km
Semi-major
6,844.0 km
B*
3.2016e-4
RAAN
221.2671°
Arg perigee
120.8978°
Mean anomaly
239.5089°
Rev number
11,412

§ Raw data

2024-085C1 59679U 24085C   26145.20764248  .00010373  00000+0  32016-3 0  99942 59679  97.3292 221.2671 0028665 120.8978 239.5089 15.33336630114121

JSON: /api/v1/satellites/59679 · /tle

For live sub-satellite position, see the globe view (requires WebGL).

§ Visibility from observer

Set your observer location to see the next 7 days of passes ≥ 10°. The values pass through the URL so the page stays shareable.

No JS? Fill the form by hand. The geolocation button needs JavaScript.